Wind_Speed
26 27 26 24 23 24 23 22 22 24 27 28 29 29 30 30 31 31 31 31 32 33 33 33 33 32 30 29 28 29 31 33 35 37 38 39 40 40 40 40 40 40 40 40 40 40 39 40 40 40 40 39 39 39 39 39 39 39 38 38 38 38 38 37 37 38 38 39 39 39 40 39 38 38 38 38 38 37 37 37 37 37 37 37 37 37
25 25 24 23 23 24 25 26 25 26 27 29 30 30 30 30 31 31 31 31 32 33 33 32 31 30 29 30 30 31 33 34 36 37 38 38 39 39 39 38 38 38 38 39 39 39 39 39 39 40 40 40 39 39 39 39 38 38 38 37 37 37 37 37 37 38 38 38 38 39 39 39 39 38 38 38 38 37 37 37 36 36 36 36 36 37
24 24 24 24 23 24 25 27 28 28 28 29 30 30 30 30 30 30 31 31 32 33 32 31 31 31 31 32 32 33 34 35 36 36 37 37 37 37 37 37 37 38 38 38 38 39 39 39 39 39 39 39 38 38 38 38 38 37 37 37 37 37 37 37 37 37 37 36 37 38 38 39 39 39 39 39 38 38 37 37 36 36 36 36 36 37
21 22 24 25 24 24 25 27 29 30 29 29 29 30 30 29 29 30 31 32 32 32 32 32 32 32 32 33 33 34 34 35 35 35 36 36 36 36 37 37 37 37 38 38 38 38 38 38 38 38 38 38 38 37 37 37 37 38 37 37 37 37 37 37 37 37 37 36 36 37 37 37 38 38 39 39 39 39 38 38 37 37 36 36 36 37
20 21 23 25 25 25 27 28 29 29 28 27 27 27 28 28 29 30 31 31 31 31 31 31 31 31 32 33 33 33 33 34 34 34 34 35 36 36 37 37 37 37 37 37 37 37 37 37 37 37 37 37 37 37 37 38 38 38 38 38 38 38 38 37 37 37 37 37 37 37 37 37 37 38 38 39 39 39 39 38 37 37 37 37 37 38
22 22 24 25 26 26 27 28 27 26 25 24 25 26 27 28 29 29 29 30 30 30 30 30 31 31 31 32 32 32 32 32 32 33 34 35 35 36 36 36 36 36 36 36 35 36 36 36 36 36 36 37 37 37 38 38 38 38 38 38 38 38 38 38 38 38 38 37 37 37 37 37 37 38 38 38 38 38 38 38 37 37 36 37 37 38
24 24 25 26 27 27 27 26 24 23 22 22 24 26 27 27 27 28 28 29 29 29 29 30 30 30 30 31 31 31 32 32 32 32 33 34 35 35 35 34 34 34 34 34 35 35 35 36 36 36 36 37 37 37 38 38 38 38 38 38 38 38 38 39 38 38 38 38 38 38 38 38 38 38 38 38 38 38 38 38 37 37 37 37 37 38
25 26 26 26 26 26 25 22 20 20 21 22 24 25 25 26 27 28 29 29 28 28 28 28 28 29 29 30 31 31 31 32 32 32 33 33 33 33 32 32 33 33 33 34 34 35 35 36 36 36 36 36 37 37 38 38 38 38 38 37 38 38 39 39 39 38 38 38 39 39 39 39 38 38 38 39 39 38 38 38 38 37 37 37 38 38
25 27 27 27 25 22 20 18 18 20 23 24 24 23 23 25 27 28 29 27 26 26 25 26 27 28 30 30 31 31 31 31 32 32 32 32 32 31 31 31 32 33 33 34 34 35 35 35 35 36 36 36 36 37 37 38 38 38 38 38 38 38 39 39 39 39 39 39 39 40 39 39 39 39 39 39 39 39 38 38 38 38 38 38 38 39
26 26 26 25 22 17 15 16 20 25 27 26 24 23 24 25 26 26 26 26 25 25 25 25 26 28 30 30 30 30 30 31 32 32 32 32 32 32 32 32 32 32 33 33 34 34 34 35 35 35 36 36 37 37 37 38 38 38 38 38 38 38 39 38 39 39 39 39 40 40 40 39 39 39 39 39 39 39 38 38 38 38 38 38 39 39
26 26 24 21 17 16 16 20 24 27 27 26 25 25 25 25 24 23 24 25 25 25 25 26 27 27 28 29 30 30 30 31 31 32 32 32 31 31 31 31 31 31 32 33 33 33 33 34 35 36 37 37 37 37 37 38 38 38 38 38 38 38 38 38 38 39 39 39 39 39 39 39 39 38 38 38 38 38 38 38 38 38 38 38 39 39
23 22 19 17 15 17 20 24 26 26 25 24 24 24 24 24 24 22 22 23 24 24 25 27 28 28 27 27 28 30 30 29 30 30 31 31 30 29 29 29 29 30 31 31 31 32 32 33 34 35 36 37 37 37 37 37 37 37 37 37 38 38 38 38 38 38 38 38 38 38 38 38 38 38 37 38 38 38 38 38 38 38 38 38 39 39
20 17 14 14 16 19 21 23 24 23 23 22 20 20 21 23 24 23 22 23 23 24 25 26 27 28 29 28 28 28 28 28 28 29 29 29 29 28 28 28 28 30 31 31 31 31 32 33 34 35 35 36 36 37 37 37 37 37 37 37 37 38 38 38 38 38 37 37 37 37 37 37 37 37 37 37 37 37 37 37 38 38 38 38 39 39
15 13 13 15 17 19 21 22 21 21 20 21 20 20 21 23 24 23 21 22 24 25 27 27 27 28 29 29 28 26 25 25 25 26 27 27 27 27 26 26 27 30 31 31 32 33 33 33 33 34 35 36 36 36 36 36 36 36 36 36 37 37 37 37 37 37 37 37 37 36 37 37 37 37 37 37 37 37 38 38 38 38 38 38 39 39
11 13 13 14 17 20 21 22 22 21 21 23 23 23 24 24 23 21 20 20 22 25 26 26 28 29 29 28 26 23 23 22 22 23 24 25 26 27 25 24 27 30 31 32 33 34 35 34 34 34 35 35 36 35 34 34 34 35 35 36 36 37 37 37 37 37 37 37 37 37 37 37 37 38 38 38 38 38 38 38 38 38 38 38 38 39
16 17 15 14 17 20 23 23 23 23 24 24 24 24 23 22 22 21 20 20 22 24 23 22 22 22 25 27 25 22 22 22 22 22 23 24 27 28 27 26 27 31 33 33 34 35 36 35 35 35 36 35 35 34 33 33 34 35 36 36 37 37 37 37 38 38 38 38 38 38 38 38 38 38 38 38 38 38 38 38 38 38 38 38 38 39
21 20 18 18 18 20 24 24 23 22 23 23 23 23 22 21 21 21 21 21 21 21 18 15 10 8 13 24 27 24 22 22 23 24 25 27 30 31 30 29 29 30 33 34 35 35 35 35 35 35 35 34 33 32 33 34 35 36 36 37 37 38 38 38 38 39 39 38 38 38 38 38 38 38 37 38 38 38 38 38 38 38 38 39 39 39
21 20 20 19 19 21 23 23 22 22 23 22 23 24 24 24 23 22 22 22 20 19 18 16 11 7 7 9 20 28 26 24 25 26 27 28 32 34 32 31 30 31 32 33 34 34 34 34 33 33 33 33 33 33 34 35 36 37 37 37 38 38 38 38 38 38 38 38 38 38 38 38 38 38 38 38 38 38 38 39 38 38 38 38 39 39
21 21 21 20 21 22 23 22 21 21 22 23 23 24 24 24 23 21 20 22 21 19 18 16 14 13 13 16 24 31 31 27 26 26 24 26 29 31 32 30 28 29 30 30 31 32 33 33 34 34 34 34 34 34 35 36 36 36 36 36 36 37 37 37 37 37 37 37 37 37 37 37 38 38 38 38 38 38 38 39 39 38 38 39 39 39
22 22 21 21 21 21 22 22 23 23 24 26 26 24 21 21 21 21 24 25 23 22 21 19 18 19 21 24 28 32 33 30 26 23 23 26 28 29 30 28 26 26 27 29 31 32 32 33 34 35 35 34 34 34 34 34 35 35 35 35 36 36 36 37 37 37 37 37 37 37 37 37 37 37 38 38 38 38 38 38 38 38 38 38 39 39
23 23 24 24 23 21 21 23 26 28 29 29 26 23 19 18 20 23 25 26 24 23 22 19 20 22 24 26 29 33 34 30 24 20 22 24 26 28 28 26 25 25 25 28 30 31 32 32 33 33 33 33 33 33 33 34 34 35 36 36 37 37 37 37 37 37 38 38 38 38 38 37 37 38 38 38 38 38 38 38 38 38 38 38 39 39
24 25 27 27 26 24 25 27 29 30 29 27 24 21 21 20 21 23 26 25 23 21 20 20 23 27 29 29 32 34 33 29 23 19 18 14 18 25 27 25 23 23 23 25 27 29 30 30 31 31 32 32 33 33 34 35 36 37 37 37 37 37 37 38 38 38 38 38 38 38 38 38 38 38 37 37 37 37 37 38 37 37 38 38 39 39
26 27 28 28 27 27 27 28 29 28 26 26 25 24 25 24 23 22 23 23 22 21 22 25 28 30 30 30 31 31 30 27 24 21 16 10 13 21 24 23 21 20 21 24 26 28 29 30 30 31 32 33 33 34 35 36 37 37 37 37 37 38 38 38 38 38 38 38 38 38 38 38 37 37 37 37 37 37 37 37 37 37 38 38 39 39
27 27 27 27 27 27 28 28 29 29 28 29 30 30 29 29 28 27 26 26 25 25 27 29 29 28 28 28 28 28 27 25 23 20 16 11 13 19 23 21 19 19 21 25 27 28 30 31 32 33 33 33 33 34 35 36 36 37 37 37 37 37 38 38 38 37 37 37 37 37 37 37 37 37 37 37 37 37 37 38 38 38 39 39 39 40
25 25 25 26 28 29 30 31 32 33 32 31 30 30 29 29 29 30 30 29 28 26 25 24 22 21 24 25 26 26 26 24 22 18 14 13 16 21 23 21 18 19 21 26 28 29 28 29 31 33 32 33 34 34 34 35 36 36 37 37 37 37 36 36 36 36 36 36 36 36 37 37 37 37 37 37 37 37 38 38 38 38 39 39 40 40
25 26 27 28 30 31 33 34 34 33 32 30 29 28 28 28 27 27 25 24 23 22 20 16 14 15 21 23 23 23 24 23 20 18 16 15 16 19 21 21 19 18 20 25 27 27 26 27 29 32 32 33 34 34 34 34 34 35 35 35 35 35 35 35 35 35 36 36 36 36 37 37 37 37 37 37 37 37 37 38 38 38 38 39 39 40
24 25 27 29 31 32 32 32 31 31 30 29 28 28 28 27 25 22 19 19 20 19 16 10 9 12 16 17 19 22 24 24 21 20 19 17 15 14 18 20 20 19 21 23 25 25 24 25 27 29 31 31 32 32 32 31 31 31 32 33 34 34 35 35 36 36 36 37 37 37 37 37 37 36 37 37 37 37 37 37 38 38 38 38 38 38
25 27 29 30 31 31 30 30 29 29 28 28 28 28 27 25 22 19 19 20 21 19 17 12 10 9 9 8 15 23 26 26 23 20 18 16 12 11 17 21 21 21 21 23 25 26 25 24 25 26 27 28 30 30 29 29 29 31 32 34 35 35 36 36 36 36 36 36 36 36 36 36 36 36 36 37 37 37 37 37 38 38 38 37 37 36
28 30 31 31 30 29 29 28 28 28 27 27 26 26 25 23 20 18 20 23 22 19 17 14 12 10 9 12 18 23 24 25 24 20 18 16 13 14 20 21 21 21 21 22 24 25 24 24 23 24 25 26 27 28 28 29 30 32 33 34 35 35 35 35 34 34 35 35 35 35 35 35 35 36 36 36 36 37 37 37 37 37 36 36 35 35
33 33 32 31 29 29 28 28 28 27 26 25 25 24 23 22 21 21 22 23 21 18 17 17 16 14 12 12 13 13 15 21 23 22 20 15 13 15 20 20 21 21 20 16 13 14 18 21 24 24 24 25 26 27 29 30 30 31 31 33 33 32 32 32 32 33 33 34 34 34 34 35 35 35 35 36 36 36 36 36 36 35 34 34 34 33
33 32 31 30 30 29 29 28 28 27 25 24 23 22 22 21 21 22 23 23 20 18 18 18 18 17 15 8 5 4 5 19 25 24 23 17 14 15 18 19 20 22 20 14 7 4 8 13 21 27 25 25 26 28 29 29 29 29 30 31 31 30 30 30 31 32 32 33 33 33 34 34 34 35 35 35 36 36 36 36 36 35 33 32 31 31
31 30 29 29 29 29 28 27 26 26 25 24 23 23 22 22 22 23 23 23 22 20 19 19 19 19 18 12 8 7 8 20 27 27 25 18 16 17 18 19 20 22 22 19 13 7 6 4 15 27 27 26 26 27 27 27 27 28 29 29 29 29 30 30 31 31 31 31 32 32 33 34 34 34 35 35 35 36 36 36 36 35 33 32 30 30
28 28 29 29 28 28 27 26 25 25 24 24 24 23 23 23 23 23 23 23 23 22 21 19 19 19 18 17 16 17 20 24 28 29 27 21 17 16 18 20 20 21 22 22 19 15 10 7 13 23 27 27 25 25 26 26 26 27 27 27 27 28 30 30 30 29 30 30 31 31 32 33 33 34 34 34 35 35 35 35 35 34 34 32 31 31
28 28 28 27 27 26 26 25 25 25 24 24 24 23 23 24 24 24 25 25 25 25 24 22 20 19 18 17 18 20 25 28 30 31 29 24 18 16 19 19 20 21 21 19 19 18 15 15 16 17 19 25 27 26 25 25 26 26 26 26 26 27 28 29 30 30 30 30 30 30 31 31 32 32 33 33 33 33 34 34 34 34 34 33 32 31
27 26 26 25 24 24 24 24 24 24 24 24 24 24 24 25 26 26 27 27 27 27 27 26 25 23 20 18 17 18 23 30 34 35 33 27 22 20 19 19 19 19 18 17 16 13 9 14 17 16 12 16 22 25 25 25 25 25 26 25 25 26 27 29 29 29 30 30 29 29 30 31 31 31 31 31 32 32 32 33 33 34 35 35 34 32
23 23 23 23 22 22 22 22 23 23 23 24 24 25 26 27 28 28 28 29 29 29 29 28 28 28 27 24 22 22 26 33 37 38 36 32 28 23 19 20 21 21 18 16 14 11 8 9 14 17 14 10 12 19 24 26 26 25 25 24 25 26 28 29 29 28 29 29 29 29 30 30 30 30 31 31 32 33 33 34 35 35 36 36 37 36
20 20 20 21 21 21 21 22 22 23 23 24 25 26 27 28 29 29 29 30 31 31 31 30 30 31 31 30 30 30 32 35 38 39 38 37 34 29 22 22 24 24 19 17 15 14 12 9 10 12 10 8 7 11 19 26 27 26 25 25 25 26 28 30 29 29 28 28 28 28 29 29 29 30 30 31 32 32 33 34 35 35 36 37 38 38
18 18 19 20 20 20 20 21 22 22 23 24 26 27 28 29 30 30 30 30 31 31 32 31 31 32 33 33 33 35 36 37 39 40 40 39 37 33 27 24 24 25 23 20 19 17 13 10 10 10 9 8 10 15 21 24 24 24 26 27 27 27 28 29 29 28 27 26 27 27 28 29 29 29 30 30 30 30 30 31 32 33 33 34 35 36
18 18 19 19 20 20 20 21 22 23 25 26 27 28 29 30 30 31 30 30 30 30 31 31 31 32 33 34 35 35 36 36 37 38 38 37 36 34 30 26 24 25 26 24 23 20 16 11 9 9 9 8 11 18 23 24 23 23 26 27 28 27 27 27 27 26 26 26 27 27 28 29 29 29 28 29 28 28 28 28 29 30 30 30 30 31
18 19 19 20 21 22 22 23 24 26 27 28 28 29 29 29 30 30 31 30 30 30 31 31 31 32 32 32 33 33 33 34 35 35 35 35 34 33 31 28 26 25 26 25 23 21 18 16 14 14 13 10 9 12 18 22 24 25 25 19 18 22 27 27 28 28 27 27 27 27 28 28 28 28 27 27 27 26 26 27 28 29 29 27 26 25
18 19 20 22 23 24 24 25 26 27 28 28 28 27 28 27 28 29 30 31 30 30 31 31 30 31 32 32 31 31 31 31 31 31 31 32 32 32 31 29 28 26 25 24 23 22 20 18 18 18 18 16 15 16 18 21 24 26 24 16 16 22 28 29 28 27 27 27 27 27 27 27 27 27 27 27 27 27 28 28 28 28 29 28 27 24
19 19 21 23 24 25 26 27 27 27 27 27 26 25 25 26 27 27 28 29 29 30 30 29 28 28 28 29 29 29 29 29 29 29 29 30 30 29 29 29 28 27 26 24 22 22 22 21 19 18 18 18 16 13 13 20 25 26 23 20 21 23 25 26 27 26 25 25 27 28 26 26 25 26 27 27 28 28 29 29 28 28 28 27 27 26
20 21 23 25 26 27 28 28 27 26 26 25 25 25 26 27 27 27 27 26 27 28 29 28 26 24 23 24 27 29 30 29 28 28 28 28 27 27 27 27 28 28 27 23 21 21 23 23 21 19 20 20 17 14 11 16 21 23 23 23 22 16 9 16 24 27 26 26 27 28 27 26 26 26 27 27 28 28 28 28 27 27 27 27 27 27
22 24 25 26 27 28 28 27 26 26 26 25 25 26 27 28 28 27 26 25 26 27 27 26 25 23 20 20 22 26 28 29 28 27 26 26 25 25 25 26 27 27 27 24 21 19 20 20 21 21 22 20 18 15 14 15 17 20 22 24 22 16 10 15 22 27 27 27 28 28 29 28 28 27 26 26 26 27 26 27 26 26 26 26 25 25
25 25 25 26 26 26 26 25 26 26 26 26 25 26 27 28 28 27 26 25 25 25 25 25 22 18 16 17 20 22 25 26 27 27 27 27 26 26 26 25 26 26 26 25 24 22 19 17 19 22 24 21 18 16 15 15 16 18 21 23 23 22 23 26 27 25 24 25 26 28 31 31 29 26 23 22 22 23 24 24 24 25 25 25 24 23
24 24 24 25 25 24 24 26 26 26 26 26 25 26 27 28 27 27 26 25 24 23 25 24 20 15 13 15 18 19 20 22 24 26 27 28 28 28 27 25 25 25 25 26 26 26 25 22 22 22 21 19 17 17 17 17 15 15 18 22 22 22 23 25 26 26 25 24 25 27 30 31 27 22 18 17 19 21 23 24 23 23 24 24 23 22
22 23 24 24 24 25 25 26 27 26 25 25 25 26 27 27 27 26 26 25 24 23 24 23 20 16 15 16 17 17 16 18 20 23 26 27 28 29 28 27 26 26 25 25 26 27 28 27 27 24 20 14 11 12 16 18 16 15 16 19 21 20 20 22 24 27 27 26 26 27 30 28 23 18 17 17 17 19 21 23 23 23 23 22 21 21
22 23 24 24 24 25 25 26 26 25 24 24 26 27 28 27 26 25 24 25 24 23 22 20 18 16 16 16 17 17 17 17 18 20 23 24 26 28 28 28 28 28 27 26 25 25 25 25 25 24 21 16 10 8 12 16 17 17 18 19 19 17 17 21 24 27 28 28 29 30 30 26 20 16 16 15 14 15 17 20 22 23 22 21 20 19
23 23 24 24 24 24 24 25 25 24 23 24 26 27 28 28 27 25 23 24 23 21 19 18 16 15 15 16 17 18 19 19 19 19 20 22 24 26 27 29 29 28 28 27 26 25 24 24 22 19 17 17 16 14 14 16 18 19 20 20 18 17 17 20 25 27 28 29 30 32 31 27 24 21 18 12 9 10 14 18 20 22 22 21 20 19
24 24 24 24 24 23 23 24 24 24 23 24 25 26 27 28 28 27 26 24 22 21 19 18 16 15 14 15 16 17 18 17 17 18 19 22 23 24 25 26 26 26 25 23 23 23 22 21 20 18 15 12 12 14 15 15 17 19 19 19 19 19 19 20 24 28 29 29 30 31 30 28 27 25 21 13 9 9 11 15 18 21 23 23 22 20
24 25 25 24 24 24 24 24 24 24 24 24 24 25 25 26 26 26 25 23 22 20 20 19 17 16 14 15 16 17 17 17 16 17 19 21 23 23 22 22 22 20 16 13 13 13 12 10 11 12 14 16 14 11 12 14 15 15 14 17 20 21 20 21 24 28 29 29 29 29 28 26 26 25 21 15 10 9 9 10 15 20 24 25 25 23
Wind_Direction
299 301 303 303 302 300 298 298 299 299 300 301 301 301 301 300 298 297 296 297 297 298 298 296 294 291 289 287 286 286 287 289 290 291 291 291 291 290 290 289 288 288 287 287 287 288 288 288 288 288 289 289 289 289 289 288 287 286 285 284 283 282 282 281 280 279 278 277 276 276 276 276 275 275 274 274 272 270 268 265 263 262 262 263 264 265
300 300 301 302 301 300 299 299 299 298 298 299 301 302 302 300 298 298 297 296 297 298 297 296 293 290 288 287 286 286 287 288 289 290 290 291 291 291 290 289 288 288 288 289 289 289 290 290 290 290 290 290 290 289 288 288 287 286 284 283 283 282 281 280 279 278 276 276 275 275 275 275 275 274 273 272 272 271 269 268 267 266 265 266 267 267
301 301 302 302 302 300 299 300 299 299 298 298 299 301 301 300 299 297 296 297 297 297 295 293 291 289 288 287 285 285 286 287 288 289 289 290 291 291 291 290 290 290 290 291 291 291 291 291 291 291 290 290 289 288 287 286 285 285 284 284 283 282 281 280 279 277 277 276 276 275 275 275 274 274 273 272 272 271 271 270 270 269 269 269 268 268
299 300 303 304 303 300 298 298 299 299 299 298 299 300 301 299 297 296 296 297 297 296 293 291 290 288 287 285 285 285 286 287 287 288 289 290 291 292 293 292 292 291 291 291 291 291 291 291 291 290 290 289 288 287 286 285 284 284 284 284 283 283 281 280 279 278 277 277 276 275 275 275 275 274 273 273 272 272 272 272 272 271 270 269 268 267
297 299 302 304 303 300 298 298 298 299 299 299 299 300 301 299 297 296 296 296 295 294 292 291 289 287 285 285 285 286 286 287 287 288 290 291 292 293 293 293 292 292 291 290 290 290 290 290 290 289 288 288 287 286 285 284 283 283 283 283 283 282 281 280 279 278 277 277 276 276 276 276 276 275 274 273 272 272 272 272 272 270 269 268 267 267
297 298 300 300 299 298 297 297 298 298 299 298 299 300 300 298 297 296 296 296 294 293 291 289 288 287 286 286 287 288 288 287 288 289 290 291 292 292 292 291 290 290 289 288 288 288 288 288 288 288 287 286 285 285 284 284 283 283 283 283 282 282 281 280 279 279 278 278 277 277 277 278 278 277 276 275 273 273 272 272 271 269 269 268 268 268
299 299 298 297 295 295 295 295 295 295 295 296 299 301 300 298 298 297 296 295 293 291 290 289 289 289 289 290 290 291 290 290 289 289 289 289 289 289 289 289 289 288 288 287 287 288 288 288 288 287 286 286 285 285 285 285 284 284 284 283 283 283 283 282 282 281 281 280 279 278 278 278 278 278 278 276 275 273 272 272 271 270 269 269 269 269
299 299 297 295 294 294 294 291 290 292 294 297 301 303 302 300 299 297 296 294 292 292 292 293 293 293 294 293 293 293 292 291 289 288 288 287 287 287 287 287 288 288 287 287 287 287 288 288 287 287 286 286 286 287 287 287 287 286 286 286 285 285 285 285 285 284 284 282 280 278 277 277 277 277 277 276 275 273 272 271 271 270 270 270 269 269
294 295 294 293 291 291 292 291 293 297 301 302 303 303 303 301 300 299 298 296 295 295 297 297 297 297 296 296 295 294 292 290 288 287 287 287 287 286 287 287 288 288 288 287 287 287 287 287 287 287 287 288 288 288 289 289 288 288 287 287 286 286 285 285 285 284 283 282 281 279 277 276 275 274 275 274 274 273 272 271 270 270 269 269 268 267
290 289 290 291 289 286 286 293 301 305 307 305 302 300 299 300 301 302 302 300 300 300 300 299 298 298 297 297 296 294 292 290 287 286 286 286 286 287 287 288 288 289 288 288 287 287 287 287 288 288 289 289 289 289 289 288 288 287 286 286 285 284 284 283 283 282 281 281 280 279 277 276 274 273 273 273 273 272 272 271 270 269 268 267 266 266
289 287 287 288 288 288 291 298 304 307 308 305 302 300 298 299 302 304 306 305 304 303 302 299 298 297 297 297 297 296 293 291 289 288 287 287 287 288 288 289 288 288 288 288 287 287 287 288 289 289 290 290 289 289 288 288 287 286 285 284 283 283 283 282 282 282 281 281 280 279 278 277 275 274 273 273 272 271 271 270 269 268 267 266 265 264
285 285 284 285 291 298 302 305 306 307 306 306 305 304 304 304 305 306 306 305 304 303 301 299 297 296 296 296 297 297 294 291 290 290 290 290 290 290 291 290 290 289 289 289 287 286 286 288 289 289 290 290 289 289 288 287 286 285 284 284 283 283 283 283 283 282 282 281 280 279 279 278 277 276 274 273 272 271 270 269 268 266 265 264 263 262
280 281 283 290 299 305 307 308 307 306 306 307 307 307 308 308 308 307 303 300 299 299 299 298 297 296 296 297 297 296 293 291 290 290 291 291 292 293 293 292 292 293 294 292 289 287 287 287 288 288 289 288 288 288 287 285 285 284 284 284 284 284 284 284 283 282 281 280 279 278 278 277 276 274 273 272 270 269 268 267 265 264 263 262 261 261
283 290 298 304 306 307 307 307 307 307 306 306 305 304 305 306 306 303 300 297 297 298 300 298 297 297 298 300 299 297 294 291 290 291 290 290 291 293 293 290 290 292 294 292 289 288 288 288 288 287 287 286 286 285 284 283 283 283 284 284 284 283 283 282 282 281 280 279 278 277 275 274 274 272 271 270 269 268 267 266 264 263 263 262 262 261
303 309 309 307 306 306 306 307 306 305 304 304 305 304 303 303 301 299 298 297 298 300 301 299 298 298 300 302 302 300 298 295 292 290 288 289 291 294 293 289 288 290 290 289 288 288 289 289 287 286 285 284 283 282 281 281 281 282 284 284 283 282 282 282 281 281 280 279 278 277 276 275 274 273 272 271 270 269 268 267 266 265 264 264 263 263
313 312 308 306 305 305 305 305 304 303 303 303 303 303 301 299 298 297 297 297 300 301 301 300 300 300 302 304 304 304 304 301 296 294 293 291 292 295 295 292 290 290 289 288 288 289 290 289 287 286 285 285 284 282 281 282 283 283 284 284 284 283 282 282 282 282 282 281 279 278 277 276 275 274 274 273 272 270 269 268 267 267 266 265 264 263
310 308 306 304 303 303 304 304 303 301 301 301 300 299 296 294 294 295 297 298 301 302 300 300 299 299 303 305 306 307 308 306 302 299 298 296 296 296 296 295 292 290 290 289 288 289 289 288 287 287 287 286 285 284 284 284 284 284 284 284 284 284 284 284 283 282 282 280 279 278 277 276 275 274 273 272 270 269 268 267 266 265 264 263 263 262
306 304 303 302 301 301 303 303 302 301 300 299 298 297 296 294 293 293 296 299 300 300 300 299 297 295 298 302 305 307 309 307 304 301 298 297 297 297 297 296 293 290 288 287 287 288 289 287 286 286 287 287 286 286 287 287 286 285 284 284 284 284 284 283 282 281 280 279 278 276 275 274 273 272 271 270 268 267 267 266 265 264 263 262 262 261
302 302 301 300 300 300 301 301 300 299 298 297 296 296 295 295 294 293 295 300 300 298 297 297 297 296 295 296 300 305 308 308 304 300 296 295 295 296 299 296 292 288 286 285 286 287 289 288 287 286 287 286 286 287 288 288 287 286 285 284 284 283 283 283 282 281 280 279 278 276 275 274 273 272 271 270 269 268 267 267 266 265 264 263 262 262
299 299 298 298 298 299 298 298 297 297 296 297 296 294 292 294 295 297 299 301 300 297 295 294 294 295 295 296 299 303 306 306 303 296 291 291 293 295 298 296 292 287 284 284 287 288 289 289 288 288 288 287 288 288 287 286 286 286 286 286 285 284 283 283 282 281 281 280 279 278 277 276 275 274 273 272 271 270 270 269 268 267 265 264 263 263
295 295 295 297 296 295 294 295 296 296 297 297 296 294 293 296 299 300 301 301 299 296 294 292 292 294 296 296 298 301 303 303 299 291 288 289 291 294 297 296 292 287 283 285 288 289 289 288 288 288 289 290 290 290 289 287 287 288 288 288 287 285 284 284 284 283 282 281 281 280 280 278 277 276 275 274 273 272 271 270 268 267 266 265 264 263
291 292 295 296 295 293 291 292 294 296 298 299 298 298 301 301 300 299 300 299 298 295 293 292 292 294 295 295 295 297 299 299 293 286 286 285 288 292 296 297 293 287 284 286 288 291 291 289 288 289 291 292 292 292 291 291 291 291 290 289 288 287 286 285 285 284 283 283 282 282 281 280 279 278 276 275 274 273 272 270 269 268 266 265 264 263
292 293 296 297 296 294 293 294 296 299 302 303 303 301 300 299 297 295 297 297 296 294 292 292 293 294 293 293 293 295 297 296 291 285 283 279 285 291 295 296 293 287 283 286 290 293 294 292 290 290 292 292 291 291 291 291 291 291 290 289 288 287 286 285 285 284 284 283 283 282 281 280 279 277 276 275 274 273 271 270 269 268 266 265 264 262
297 297 298 298 298 298 298 300 303 305 306 304 302 300 299 297 296 295 295 295 294 293 293 294 294 293 293 293 295 297 298 297 294 289 282 279 284 290 294 294 292 288 286 289 292 294 295 293 292 292 291 291 290 290 290 290 290 290 290 289 288 287 285 285 284 284 283 283 282 281 279 278 277 276 275 274 273 272 270 269 268 267 266 265 264 262
300 300 300 300 301 302 303 303 304 303 303 302 302 301 300 300 299 298 297 296 294 293 293 293 292 293 295 297 299 300 300 299 297 291 283 281 285 289 293 293 292 289 288 292 294 294 293 292 293 293 292 291 291 291 289 288 288 289 290 290 289 287 286 285 285 284 284 283 282 281 280 279 278 277 276 275 274 272 271 269 268 267 266 265 264 263
301 302 303 304 304 304 303 302 302 302 302 302 302 302 303 302 301 299 296 295 295 295 294 292 289 292 296 298 299 300 302 302 298 291 285 284 286 289 293 294 292 288 289 293 296 295 293 291 292 294 293 292 291 290 288 285 285 287 289 291 290 289 289 289 288 287 286 286 285 284 283 282 281 280 279 277 276 274 273 271 270 269 268 267 267 266
305 306 307 307 306 305 304 304 303 303 303 303 303 303 303 303 302 298 294 295 297 297 296 292 289 292 296 297 297 299 303 304 301 294 288 285 284 287 292 297 296 293 294 295 296 295 292 290 291 292 291 290 290 289 287 284 285 288 292 293 293 293 293 293 291 290 289 289 288 287 285 284 283 281 280 278 276 275 273 272 271 270 269 269 268 267
311 311 310 309 308 307 306 306 305 305 305 305 304 304 303 302 299 296 294 297 298 297 295 291 289 290 291 291 296 299 302 304 303 298 294 291 285 284 293 300 301 300 299 299 297 295 292 290 290 290 290 290 292 293 292 291 292 294 296 296 295 294 294 293 291 290 290 289 288 286 285 283 282 280 278 276 275 274 272 271 270 269 268 267 266 264
315 314 312 311 310 309 309 308 307 307 306 305 304 304 304 301 295 291 292 295 296 294 293 291 290 289 288 292 296 297 299 302 304 305 305 301 292 289 297 302 304 303 303 302 301 300 297 294 294 294 294 296 298 298 298 297 296 295 295 295 295 294 293 291 290 290 289 288 287 286 284 283 281 280 278 277 275 274 272 271 270 269 268 266 263 261
317 316 315 313 312 312 311 311 309 308 307 306 305 305 305 301 295 291 291 294 292 289 291 292 292 292 292 293 294 294 295 301 307 312 312 305 294 293 299 302 304 305 306 305 303 301 300 300 302 302 302 302 302 301 300 299 297 295 294 295 294 293 291 291 290 290 290 289 288 287 285 284 283 282 281 279 278 276 275 274 272 271 270 267 265 262
318 317 315 315 314 314 314 313 312 311 309 308 308 308 307 304 300 297 295 294 289 286 288 291 292 292 292 291 288 283 288 300 307 313 313 303 292 292 298 300 302 304 305 304 300 294 298 301 305 307 308 307 304 302 300 298 296 295 296 296 294 292 291 292 292 292 291 290 289 289 287 286 285 284 282 280 279 277 276 275 274 272 271 269 266 263
317 316 315 315 315 315 315 315 314 313 312 312 312 311 309 307 303 301 299 296 291 288 286 288 290 290 289 286 281 279 284 296 303 308 310 301 292 292 297 298 300 302 302 300 295 289 291 294 305 307 309 307 304 302 300 299 296 296 297 296 293 292 294 295 295 294 292 291 291 289 288 287 285 284 282 280 279 278 276 274 272 270 268 266 263 261
315 315 315 315 315 315 315 315 315 315 314 314 313 312 310 308 306 303 301 299 296 292 287 286 287 288 287 284 282 282 286 292 299 304 306 302 295 292 296 297 297 298 300 298 294 289 283 282 297 303 306 306 304 302 301 300 299 298 297 295 293 293 296 298 297 295 293 293 292 290 289 287 285 284 282 281 279 278 276 274 271 268 265 262 260 258
314 314 314 315 315 315 316 316 316 316 316 315 314 313 311 309 308 306 305 302 300 297 293 289 286 285 286 286 284 285 289 293 299 304 306 302 295 291 294 295 295 297 299 298 296 293 288 288 293 299 303 304 304 303 302 301 301 301 300 296 294 293 295 298 298 296 294 293 291 290 289 288 286 284 283 281 280 278 276 273 270 267 264 261 258 256
313 313 314 315 315 315 315 316 317 317 316 315 314 313 312 310 309 308 306 305 304 302 298 294 290 286 284 283 283 285 288 294 300 305 306 302 295 292 292 292 293 295 296 295 296 295 289 291 294 296 298 301 301 302 302 303 304 304 303 299 296 295 295 296 296 295 293 292 290 288 288 287 286 285 283 282 281 278 276 274 271 268 265 261 258 255
311 311 313 314 315 314 315 315 315 316 315 315 314 313 312 311 310 309 307 307 306 305 302 299 296 293 289 284 281 280 285 292 299 304 304 301 297 292 288 289 293 294 292 292 292 292 287 290 294 296 295 292 295 300 304 307 309 308 305 302 299 297 297 296 295 293 291 290 289 287 287 287 286 284 283 282 282 280 279 277 274 271 267 264 260 257
309 310 312 314 315 314 313 314 315 314 314 313 313 313 312 311 310 309 308 308 307 306 305 302 300 298 295 292 288 286 288 293 298 301 301 300 297 292 286 287 292 294 290 288 289 290 290 290 292 293 290 285 285 295 303 308 310 308 305 304 302 300 299 298 296 293 290 288 287 286 287 287 286 285 284 284 283 282 281 279 276 273 269 266 263 259
311 311 312 313 314 314 313 313 313 313 312 312 312 312 311 311 310 309 309 308 307 306 306 304 302 302 301 298 295 293 294 295 296 298 299 299 297 293 288 287 290 293 290 287 286 287 289 289 292 293 290 284 287 294 300 304 305 305 305 306 305 302 300 299 298 296 292 289 287 287 288 288 287 286 285 285 285 283 280 279 277 275 272 269 265 261
313 312 312 312 312 313 312 311 310 311 311 311 311 310 310 310 310 311 310 310 309 308 307 305 303 302 302 301 300 298 298 297 298 299 300 300 298 295 291 288 288 291 293 291 288 285 283 282 283 288 290 290 294 298 300 301 301 302 305 307 308 306 304 303 302 299 295 292 289 288 289 290 289 288 286 285 283 280 277 276 277 276 273 270 266 263
313 312 311 311 312 311 310 309 309 311 311 311 311 311 311 311 312 313 313 312 312 311 310 309 306 305 304 304 303 302 301 301 302 302 302 302 301 299 295 291 289 291 293 293 290 286 282 279 280 283 285 287 291 295 297 297 298 301 304 306 305 305 306 306 304 301 298 294 291 289 289 291 291 290 287 284 281 278 275 275 276 276 274 268 262 259
312 311 310 311 312 311 310 310 311 312 312 312 311 311 312 312 312 313 314 314 314 314 314 313 311 309 308 307 306 306 306 306 306 305 305 305 305 303 299 295 293 292 293 292 291 289 286 283 283 285 286 286 287 289 290 292 295 299 300 297 294 297 302 303 302 300 299 297 294 293 292 291 291 290 288 286 284 282 281 278 277 276 275 270 262 254
310 309 309 311 311 311 312 312 312 312 313 312 311 310 311 312 312 312 313 313 314 314 315 314 312 310 308 308 310 311 312 312 311 310 309 310 309 307 303 300 298 297 295 293 292 291 291 290 286 284 284 285 285 285 287 290 295 298 297 294 294 298 302 304 305 304 301 299 299 299 296 294 292 291 291 289 290 290 290 286 282 278 274 269 264 256
309 308 309 311 312 313 314 314 314 314 314 313 312 311 312 313 314 313 311 310 310 312 314 313 311 308 305 306 310 314 315 316 316 315 315 315 314 312 309 307 305 303 301 296 292 293 295 295 290 284 285 286 284 281 282 287 292 296 297 297 298 298 297 303 307 309 307 304 303 302 300 298 296 296 295 295 295 296 295 293 290 286 281 275 269 262
309 310 311 313 314 315 316 315 315 314 314 313 311 312 314 316 316 314 312 310 309 310 311 312 311 308 304 304 308 312 315 317 319 320 320 321 320 319 317 314 312 310 306 300 294 292 294 295 293 292 293 291 285 278 278 281 286 291 296 299 299 296 287 293 300 304 305 305 305 305 305 304 303 302 301 300 299 298 298 297 296 294 292 288 281 271
313 313 314 315 316 316 315 314 314 315 314 313 313 313 315 317 317 315 313 310 308 309 310 312 311 308 306 306 308 311 314 317 320 322 323 325 326 326 323 319 317 314 311 306 301 295 291 287 290 295 299 295 287 278 274 277 282 288 294 300 301 298 294 297 300 300 301 302 304 307 310 311 310 307 303 300 300 301 301 301 299 298 298 296 290 281
315 315 314 315 315 314 313 314 314 315 314 314 314 314 317 318 318 316 314 312 309 308 311 312 310 305 303 306 308 310 313 315 318 322 324 326 327 328 327 325 323 320 316 312 308 303 297 290 288 291 294 293 288 281 278 277 277 282 291 299 302 302 302 304 305 305 304 304 305 309 315 317 315 309 302 300 302 305 306 307 305 303 302 300 295 288
314 314 314 314 314 314 314 315 315 315 314 314 314 315 317 318 318 317 315 314 311 310 311 312 309 303 300 302 306 308 310 313 316 319 322 324 326 328 329 329 329 327 322 317 313 309 305 300 295 290 283 278 277 281 283 283 283 284 290 298 302 303 303 306 310 313 314 313 312 316 321 322 318 311 307 306 305 307 310 312 313 312 310 307 302 296
314 314 313 313 313 313 313 315 315 315 313 312 314 316 318 319 318 316 314 315 314 312 311 310 307 303 301 302 304 306 308 311 312 315 318 322 325 328 330 330 331 331 329 326 322 318 315 313 307 297 283 268 258 265 279 285 288 291 295 299 301 301 303 309 315 320 322 322 323 325 327 325 320 314 312 311 310 311 313 315 318 320 320 317 312 304
314 313 313 313 312 311 311 313 314 313 311 311 313 315 317 319 319 317 314 314 314 311 309 306 304 303 303 304 305 308 310 312 312 314 316 320 324 327 329 331 332 332 332 332 332 331 331 329 327 319 303 278 260 254 266 279 290 297 302 304 305 306 309 315 320 325 328 328 330 332 332 330 327 323 319 313 308 310 314 317 322 326 328 328 324 316
315 314 314 313 311 310 310 311 312 311 310 311 311 313 315 318 319 319 318 316 314 311 308 305 303 302 302 304 306 309 311 312 313 314 316 321 324 327 328 330 331 332 333 335 337 339 339 338 339 340 339 318 285 265 265 276 291 302 308 312 315 317 317 319 325 330 332 332 333 334 335 335 334 333 328 320 310 310 316 322 326 330 334 336 334 329
315 315 314 313 311 310 310 311 310 310 309 309 310 311 312 314 316 317 318 316 313 311 309 307 304 301 301 303 306 310 312 312 312 313 316 320 324 326 326 328 329 331 333 335 338 341 341 339 337 339 342 346 341 321 301 294 298 303 307 316 323 326 325 324 329 333 335 336 336 337 337 337 338 337 334 328 319 315 319 324 328 331 336 340 341 339
Height
728 725 724 723 722 719 717 717 717 715 712 711 710 710 709 707 706 704 703 702 701 699 697 696 694 692 691 690 689 687 686 685 683 682 680 678 676 674 672 670 668 667 665 663 661 659 658 656 654 653 652 650 649 647 646 645 644 643 642 641 640 639 638 637 637 636 635 635 634 633 632 631 630 630 629 629 628 627 626 626 625 625 626 626 625 624
726 724 723 722 721 718 715 714 714 714 712 709 708 707 706 704 703 702 701 699 698 697 695 693 692 690 688 687 686 685 684 682 680 678 677 675 673 671 669 667 665 663 662 660 658 657 655 653 652 650 649 647 646 645 644 642 641 640 639 638 637 636 635 635 634 633 632 631 631 630 629 628 627 626 626 626 625 624 623 622 622 622 622 622 621 621
725 722 720 720 720 718 715 712 711 711 710 708 706 705 704 702 701 699 698 696 695 694 692 691 689 687 686 685 683 682 681 679 677 675 673 672 670 668 666 664 662 661 659 657 656 654 652 651 649 647 646 645 643 642 641 640 638 637 636 635 634 633 632 631 631 630 628 628 627 626 626 625 624 623 623 622 621 621 620 619 619 618 618 618 618 618
725 722 719 718 717 716 714 712 710 708 708 706 704 703 702 700 698 697 695 694 692 691 689 688 687 685 683 682 680 678 677 676 674 672 670 669 667 665 663 661 660 658 656 655 653 652 650 648 647 645 644 642 641 639 638 637 636 635 633 632 631 630 629 628 627 626 625 625 624 623 623 622 621 621 620 619 618 617 617 616 616 616 615 615 616 616
724 722 719 717 716 713 712 711 709 707 706 704 703 701 699 698 696 694 692 691 689 688 686 685 684 682 680 678 677 675 674 672 671 669 667 666 664 662 660 659 657 655 654 652 651 649 647 646 644 643 641 639 638 636 635 634 633 631 631 629 628 627 626 625 624 623 622 622 621 620 619 619 618 617 616 616 615 614 614 613 613 612 612 612 612 612
723 722 720 718 715 712 710 709 707 706 704 702 701 699 697 695 693 692 690 688 687 685 684 682 681 679 677 676 674 672 671 669 667 666 664 663 661 659 658 656 654 653 651 649 648 646 645 643 642 640 638 636 635 634 632 631 630 628 627 626 625 624 623 621 621 620 619 618 617 616 616 615 615 614 613 612 612 611 611 610 610 609 609 609 609 609
721 720 719 717 714 711 709 707 706 705 703 701 698 696 694 692 691 689 688 686 685 683 681 679 677 676 674 673 672 670 668 667 665 663 662 660 658 656 655 653 652 650 648 647 645 643 642 640 638 637 635 633 632 631 629 628 626 625 624 623 621 620 619 618 617 616 615 615 614 613 612 612 611 611 610 610 609 608 608 607 606 606 606 606 606 606
719 717 717 715 712 709 707 706 705 703 702 699 696 693 691 690 688 687 685 684 682 681 678 676 674 673 672 671 669 668 666 664 662 660 658 657 655 653 652 650 648 647 645 644 642 641 639 637 636 634 632 631 629 627 626 625 623 622 621 620 619 617 616 615 614 613 612 611 611 610 609 609 608 607 607 606 606 605 605 604 603 603 603 603 603 603
719 716 713 712 710 707 705 703 702 702 700 698 695 693 691 688 686 684 682 681 680 679 677 675 672 670 669 668 667 665 663 661 659 657 655 653 651 650 648 647 645 644 642 641 639 637 636 634 632 631 629 628 626 625 623 622 620 619 618 617 616 614 613 612 611 610 609 608 607 607 606 605 605 604 604 603 602 602 601 601 600 600 600 600 600 599
718 715 711 708 707 706 704 701 699 698 698 697 695 693 691 688 685 682 679 678 677 677 676 674 671 668 666 665 664 662 660 658 656 654 652 650 648 647 646 644 642 641 639 638 636 634 632 631 629 628 626 625 623 622 620 619 617 616 615 614 612 611 610 609 608 607 606 605 604 603 602 602 601 601 600 600 599 598 598 597 597 597 596 596 596 596
714 711 709 706 705 704 702 700 698 696 696 694 692 691 690 688 685 682 678 675 674 674 673 672 670 667 665 662 660 659 657 654 652 650 648 647 645 644 642 641 639 638 636 635 633 631 629 628 626 625 623 622 620 619 617 616 614 613 612 611 609 608 607 606 605 604 603 602 601 600 599 598 597 596 596 596 595 595 594 594 593 593 593 593 592 592
711 708 707 705 703 702 700 698 697 695 694 693 691 688 687 686 685 683 680 676 673 672 670 668 666 665 663 661 658 655 653 651 648 646 644 643 642 640 639 637 636 634 632 631 629 628 626 625 623 622 620 618 617 616 614 612 611 609 608 607 606 605 603 602 601 600 599 598 597 596 595 595 594 593 593 592 592 591 591 590 590 590 589 589 588 588
709 707 705 703 702 700 699 697 695 694 693 692 690 687 685 683 683 682 680 677 673 671 669 666 663 661 660 659 657 654 651 648 646 643 642 640 638 637 636 634 632 631 629 627 626 624 623 621 620 618 617 615 613 612 611 609 607 606 605 603 602 601 600 599 598 597 596 595 594 593 592 591 591 590 589 589 588 587 587 586 586 586 585 585 585 584
707 705 704 702 701 699 698 697 695 693 692 690 689 687 685 683 682 680 678 675 672 669 667 664 660 657 656 655 654 652 649 647 644 641 639 637 636 636 635 632 630 628 626 624 622 620 619 618 616 615 613 611 610 608 607 605 604 602 601 600 599 598 596 596 594 593 592 591 590 589 588 588 587 586 586 585 584 584 583 582 582 581 581 581 580 580
706 705 703 701 699 698 697 696 694 692 690 689 687 686 684 682 680 679 676 673 669 667 665 662 658 655 653 652 652 650 648 645 642 640 637 635 634 634 634 631 628 625 623 621 619 616 616 615 613 611 609 607 606 605 603 602 601 599 598 596 595 594 593 592 591 590 589 587 586 586 585 584 583 582 581 581 580 579 579 578 578 577 577 576 576 576
706 704 702 700 698 697 696 695 693 691 689 687 686 684 683 680 678 676 674 671 668 665 663 659 655 651 648 648 649 649 647 645 642 639 636 633 631 632 632 629 626 622 620 618 616 613 612 611 609 607 605 604 603 601 600 599 597 596 595 593 592 591 589 588 587 586 585 584 583 582 581 580 579 578 577 577 576 576 575 574 574 573 573 573 572 572
706 704 702 700 697 696 694 693 692 690 688 686 684 683 681 679 677 674 672 670 667 664 662 659 656 651 645 643 644 646 646 644 641 637 635 631 628 628 629 627 623 619 616 614 612 610 608 607 605 604 602 601 600 599 597 596 594 593 591 590 588 587 586 585 583 582 581 580 579 578 577 576 575 575 574 573 572 572 571 571 570 570 569 569 569 568
705 704 702 699 697 695 693 692 691 689 687 685 682 680 678 676 675 672 671 668 666 663 661 658 656 652 647 642 640 641 644 643 640 636 632 629 626 624 625 624 621 616 613 611 608 607 605 603 602 601 599 598 597 596 594 593 591 589 588 586 585 583 582 581 580 578 577 576 575 574 573 572 571 571 570 569 568 568 567 566 566 566 565 565 565 564
703 702 701 699 696 694 692 691 689 687 685 683 680 678 676 674 672 671 669 667 665 663 660 657 654 651 648 643 640 639 641 640 638 634 631 626 623 621 621 620 617 613 610 607 605 604 602 600 599 597 596 595 594 592 591 589 588 586 584 583 581 580 578 577 576 575 573 572 571 570 569 568 567 566 566 565 564 563 563 562 562 561 561 561 560 560
702 701 700 698 696 693 691 689 688 687 684 682 679 677 674 672 670 669 667 666 664 662 659 656 653 650 647 643 639 637 638 638 636 632 628 624 620 618 618 617 614 610 607 604 602 601 599 597 595 593 592 591 590 589 587 586 584 583 581 579 578 576 575 573 572 571 570 568 567 566 565 564 563 562 562 561 560 559 559 558 558 557 557 556 556 556
701 699 697 697 695 693 690 687 686 684 682 680 678 676 673 671 668 667 665 664 662 659 657 654 652 648 646 642 639 636 636 636 634 630 626 621 617 615 615 614 612 608 604 601 600 598 596 594 592 590 589 588 586 585 584 582 581 579 577 576 574 572 571 570 568 567 566 565 564 562 561 561 560 559 558 557 556 556 555 555 554 553 553 552 552 551
700 697 696 695 694 692 689 686 684 682 681 679 677 675 672 670 667 665 663 661 659 657 655 652 649 647 645 642 638 635 635 634 632 629 625 619 615 612 612 612 610 606 602 599 597 596 594 592 589 587 586 585 583 582 581 579 577 576 574 572 570 569 567 566 565 563 562 561 560 559 558 556 556 555 554 553 552 552 551 551 550 549 549 548 548 547
698 696 694 693 692 690 687 684 682 681 679 678 677 674 672 670 667 664 662 660 657 655 652 650 647 645 642 640 637 634 633 632 630 628 624 619 613 610 610 610 608 604 600 597 595 594 591 589 587 585 583 582 580 579 577 575 574 572 570 568 566 565 564 562 561 560 558 557 556 555 554 553 552 551 550 549 549 548 547 546 546 545 545 544 543 543
697 695 693 691 689 688 686 683 681 679 678 677 675 672 670 668 666 664 661 658 656 653 651 648 645 642 640 637 635 633 631 630 629 626 623 618 613 609 608 608 606 602 597 595 594 592 589 587 584 582 580 578 577 575 574 572 570 568 566 565 563 561 560 558 557 556 555 554 552 551 550 549 548 547 546 545 544 544 543 542 541 541 540 540 539 538
695 693 692 690 688 686 685 683 681 679 677 675 673 670 668 666 664 662 659 657 655 652 649 646 643 640 637 635 633 631 629 628 627 625 622 617 611 608 606 606 605 601 596 593 592 590 588 584 581 579 577 575 573 571 570 568 566 564 563 561 560 558 556 555 553 552 551 550 548 547 546 545 544 543 542 541 540 539 539 538 537 536 536 535 534 533
694 692 690 688 687 685 683 681 679 677 675 674 672 669 667 664 662 659 657 655 653 651 648 645 642 638 636 633 631 629 627 626 625 624 621 616 611 606 604 605 604 600 595 591 589 588 586 582 578 576 574 571 569 568 566 564 563 561 559 558 556 555 553 552 550 549 547 546 545 543 542 541 540 539 538 537 536 535 534 533 533 532 531 531 530 529
692 690 689 687 685 683 681 678 677 675 673 672 670 668 666 663 661 658 655 653 652 650 647 644 640 636 634 631 629 627 625 624 623 621 619 616 611 606 604 603 602 599 594 590 587 586 584 580 576 573 571 568 566 564 562 561 560 558 556 555 553 552 550 549 547 546 544 543 541 540 539 537 536 535 534 533 532 531 530 529 528 528 527 526 525 524
690 688 687 685 682 680 678 676 674 672 671 669 668 667 665 663 660 657 654 652 651 649 647 643 640 636 632 630 627 625 623 622 621 619 617 615 611 607 603 602 600 598 594 589 585 582 581 578 575 571 568 566 563 561 559 558 557 556 554 552 551 549 547 546 544 542 541 539 538 536 535 534 532 531 530 529 527 526 526 525 524 523 523 522 521 519
687 685 683 682 680 677 676 673 672 670 669 667 666 665 663 662 659 657 653 652 650 648 645 642 639 636 632 629 626 623 621 620 619 617 616 614 610 606 603 601 599 596 593 588 582 578 576 575 573 570 567 564 562 560 557 556 554 552 551 549 547 546 544 542 541 539 537 536 534 533 531 530 528 527 526 524 523 522 521 521 520 519 518 517 516 514
683 682 680 678 677 675 673 671 669 667 666 665 663 662 661 660 658 656 653 651 649 647 644 641 638 635 632 629 625 621 618 616 616 616 615 613 608 604 601 600 598 595 593 589 582 576 571 569 569 569 566 563 561 558 556 554 551 549 547 545 543 541 540 539 537 536 534 532 530 529 527 526 524 523 521 520 519 518 517 516 516 515 514 512 511 509
681 679 677 675 673 672 671 669 667 665 664 662 661 660 659 657 656 654 652 650 648 646 643 640 637 635 632 630 626 621 616 613 613 614 614 611 607 603 601 599 596 594 592 591 586 578 569 564 563 564 564 562 560 557 554 551 549 547 544 542 540 538 536 536 534 532 530 528 526 525 523 522 521 519 518 516 515 514 513 512 512 511 510 508 506 505
679 677 675 673 672 670 668 667 665 663 662 661 659 658 657 656 654 652 650 648 647 645 642 639 636 634 632 630 627 623 617 613 611 612 612 610 606 602 600 599 595 592 591 590 588 583 575 566 560 559 561 560 558 555 552 549 547 545 542 540 537 535 533 532 531 529 526 525 523 521 520 518 516 515 514 512 511 510 509 508 507 507 506 504 502 500
678 676 673 672 670 668 667 665 663 662 661 659 658 656 655 654 652 650 649 647 645 643 641 638 635 632 630 627 625 621 617 614 611 611 611 609 605 601 599 597 594 591 588 587 586 583 579 571 564 560 557 556 555 553 550 547 545 543 541 538 535 532 530 529 527 526 523 521 519 517 516 514 512 511 509 508 506 505 504 503 502 502 501 500 498 496
676 674 672 670 668 666 665 663 662 661 659 658 657 655 653 652 650 648 647 645 643 641 639 637 634 631 628 626 622 619 615 612 610 609 609 607 605 601 597 595 593 590 587 584 582 580 576 572 567 562 557 553 551 550 548 546 543 541 538 536 534 531 528 526 524 522 520 518 516 514 511 510 508 506 504 503 501 500 499 498 497 496 496 495 494 492
674 672 671 669 667 665 663 662 661 659 658 656 655 653 652 650 648 646 644 642 641 639 637 635 633 631 628 625 621 617 613 610 608 607 607 606 603 600 596 594 591 589 586 583 580 577 574 570 567 564 559 553 548 546 545 543 541 538 536 534 532 529 526 524 521 519 517 515 512 510 508 506 503 501 500 498 497 495 494 493 492 491 490 490 489 488
673 671 669 667 666 664 662 661 659 658 656 655 653 652 650 648 646 644 642 640 638 636 635 632 630 628 626 624 621 617 612 608 606 605 605 603 601 599 596 592 590 588 586 582 579 576 573 569 565 562 559 554 549 544 541 539 538 537 534 532 529 527 524 521 519 517 514 512 509 506 504 502 500 498 496 494 492 491 489 488 487 486 485 484 483 483
672 670 668 667 665 663 662 660 658 657 655 653 652 650 648 646 644 642 640 638 636 634 632 630 627 625 623 621 618 615 611 608 605 603 602 601 600 597 595 591 589 587 585 582 579 576 572 568 564 560 557 554 550 544 539 536 535 534 532 530 527 525 521 518 516 514 512 509 506 503 501 499 497 494 492 490 488 486 485 483 481 480 479 478 477 476
672 670 667 666 664 663 661 659 657 656 654 652 650 648 646 644 642 640 638 636 633 631 629 627 624 622 620 618 616 612 610 606 604 601 600 598 597 595 593 590 587 585 584 581 579 576 572 569 564 560 556 552 549 545 541 537 534 531 529 527 525 522 519 516 513 511 509 506 503 501 498 496 494 491 489 486 485 483 480 478 476 475 473 472 471 470
671 669 667 665 664 662 660 658 657 655 653 651 649 647 645 642 640 638 636 634 631 629 627 625 622 619 616 614 612 610 607 605 602 600 598 596 595 593 591 588 586 583 581 579 577 575 572 569 565 561 556 551 547 543 541 538 535 531 528 525 522 519 516 514 511 509 506 504 501 498 495 493 491 488 486 483 481 479 476 474 471 470 469 467 466 464
670 668 667 665 663 661 660 658 656 654 652 649 647 645 643 641 638 636 633 631 629 627 625 622 619 616 614 611 609 607 605 602 600 597 596 594 592 591 589 586 584 581 579 577 575 573 571 568 564 561 557 553 549 545 541 537 534 531 528 525 521 516 513 511 509 506 503 501 498 495 492 490 487 485 483 480 478 476 473 470 468 466 464 463 461 460
670 668 666 664 662 660 658 657 654 652 650 648 646 643 642 639 637 634 631 629 626 624 622 620 617 614 611 609 606 604 602 600 598 596 594 592 590 588 586 585 582 580 577 575 573 571 569 566 563 559 556 553 550 546 542 537 534 531 529 526 521 516 512 509 506 503 501 498 496 493 490 487 485 482 479 476 474 471 469 467 464 462 460 459 457 456
669 667 665 663 661 659 657 655 653 651 649 647 645 643 641 638 636 633 630 627 625 622 620 618 615 612 609 606 603 601 600 598 596 594 591 590 588 586 584 582 580 578 576 573 571 569 566 565 562 558 555 552 549 546 541 536 532 530 528 525 521 516 511 506 503 501 499 496 493 490 488 485 482 479 476 473 470 468 465 463 461 458 456 454 453 451
668 666 664 662 660 658 656 653 652 649 647 646 643 642 639 637 635 633 630 627 624 621 619 616 614 611 608 604 601 599 597 595 593 592 590 588 586 584 582 581 579 577 575 572 569 566 564 562 560 557 554 551 549 546 541 536 532 529 526 524 521 517 512 505 501 498 497 494 491 488 485 482 479 476 473 470 467 464 461 459 457 455 453 451 449 447
667 665 663 661 658 656 654 652 650 648 646 644 642 640 638 636 634 632 629 626 623 620 618 615 613 610 607 604 600 597 594 592 591 589 587 586 584 583 581 579 577 575 573 571 568 565 562 560 557 554 552 550 547 544 541 536 532 528 525 522 520 518 514 507 501 497 495 491 488 485 482 479 476 473 470 467 464 461 458 456 454 451 449 447 446 444
666 664 662 660 657 656 653 651 649 647 645 642 641 639 636 635 633 631 628 626 622 620 617 615 612 610 607 603 600 596 593 590 588 586 585 584 582 581 579 577 575 573 571 569 567 565 562 558 555 551 549 547 546 543 540 536 532 528 524 521 518 516 511 507 502 498 494 490 486 483 480 477 474 471 468 465 461 458 456 453 451 449 446 444 442 441
666 663 661 659 657 655 652 650 648 645 643 641 639 637 635 633 631 629 627 625 622 619 616 614 612 610 607 603 599 596 593 589 586 584 583 581 580 578 577 575 573 571 569 567 565 562 560 557 554 551 548 546 543 540 537 535 531 528 524 520 517 513 509 505 501 497 493 489 486 482 478 476 473 470 466 462 459 456 453 451 449 446 444 441 439 437
665 662 660 658 656 654 652 649 647 644 642 640 638 636 634 632 630 628 626 623 621 619 616 613 611 609 606 603 600 597 594 590 587 584 581 579 577 576 574 573 571 570 567 565 562 560 557 554 552 550 548 545 542 538 535 532 530 527 524 520 516 513 509 504 499 495 492 488 485 481 477 474 471 468 464 461 457 454 451 448 446 444 441 439 437 435
664 662 660 657 655 653 650 648 646 644 642 639 636 634 633 631 629 627 625 622 620 618 615 613 610 608 605 602 600 597 594 591 588 585 582 579 577 575 573 571 569 567 565 562 560 557 554 551 549 547 546 545 542 538 534 531 529 526 523 520 516 513 508 504 499 495 491 488 484 481 478 474 471 467 463 459 456 452 449 446 443 441 439 437 435 432
664 662 659 657 655 652 650 647 645 643 641 638 635 633 631 629 628 626 624 622 619 617 615 612 610 607 604 601 599 596 594 591 588 585 582 580 577 575 572 570 567 565 562 559 557 554 551 549 546 545 543 542 540 538 534 531 528 526 523 520 517 513 509 504 499 495 491 488 484 481 478 475 471 467 464 460 456 451 448 445 442 440 437 435 433 431
662 661 659 657 654 652 649 647 645 643 640 638 635 632 630 628 626 625 623 621 619 616 614 612 609 606 604 601 598 596 593 591 588 585 582 580 578 575 573 570 567 564 561 558 555 552 549 546 543 542 541 540 539 537 534 531 528 526 523 520 517 513 509 505 500 496 492 488 484 481 477 474 471 467 464 460 456 451 447 444 441 438 436 433 431 429
661 659 657 656 653 651 649 647 644 642 640 637 635 632 630 627 625 623 621 619 617 615 613 611 608 606 603 600 598 595 593 591 588 585 583 580 578 576 573 571 569 566 563 560 556 553 550 547 544 541 538 538 538 537 535 532 529 526 523 520 516 513 510 506 501 497 493 489 485 481 478 474 471 467 464 460 456 452 448 444 440 437 434 432 429 426